When you browse on this site, cookies collect data to enhance your experience and personalize the content and advertising you see.
Visit our Privacy Policy to learn more. By continuing to use the site, you agree to this use of cookies and data.
  • In Hungary
  • List of Countries
  • For 7 days
  • Water Temperature
  • Satellite Maps
  • Weather Map
  • News
  • Weather Widgets
  • user-avatar
    Login

    Hourly Weather Kozova

    Today, 18 January, Friday

    Time Temperature Precipitation Wind Pressure Humidity
    00:00 -1°C° 0 mm 3 mps 722 mmHg 83%
    01:00 -1°C° 0 mm 3 mps 722 mmHg 83%
    02:00 +1°C° 0 mm 1 mps 721 mmHg 85%
    03:00 -1°C° 0.1 mm 2 mps 721 mmHg 86%
    04:00 +1°C° 0.1 mm 2 mps 721 mmHg 87%
    05:00 +1°C° 0.1 mm 2 mps 721 mmHg 89%
    06:00 +1°C° 0.2 mm 2 mps 721 mmHg 90%
    07:00 +1°C° 0.2 mm 2 mps 721 mmHg 91%
    08:00 +1°C° 0 mm 2 mps 721 mmHg 92%
    09:00 +1°C° 0.5 mm 2 mps 722 mmHg 95%
    10:00 +1°C° 0.5 mm 2 mps 722 mmHg 97%
    11:00 0°C° 0.5 mm 3 mps 722 mmHg 99%
    12:00 0°C° 0.3 mm 3 mps 723 mmHg 99%
    13:00 0°C° 0.3 mm 3 mps 723 mmHg 99%
    14:00 0°C° 0.3 mm 3 mps 723 mmHg 99%
    15:00 0°C° 0.1 mm 3 mps 724 mmHg 97%
    16:00 -1°C° 0.1 mm 3 mps 724 mmHg 94%
    17:00 -1°C° 0.1 mm 3 mps 725 mmHg 91%
    18:00 -1°C° 0.2 mm 3 mps 725 mmHg 92%
    19:00 -3°C° 0.2 mm 4 mps 726 mmHg 92%
    20:00 -3°C° 0.2 mm 4 mps 726 mmHg 93%
    21:00 -3°C° 0.2 mm 4 mps 727 mmHg 93%
    22:00 -4°C° 0.2 mm 4 mps 728 mmHg 93%
    23:00 -4°C° 0.2 mm 4 mps 728 mmHg 93%

    Tomorrow, 19 January, Saturday

    Time Temperature Precipitation Wind Pressure Humidity
    00:00 -5°C° 0 mm 4 mps 729 mmHg 94%
    01:00 -6°C° 0 mm 3 mps 729 mmHg 94%
    02:00 -8°C° 0 mm 3 mps 729 mmHg 95%
    03:00 -8°C° 0 mm 3 mps 730 mmHg 94%
    04:00 -9°C° 0 mm 3 mps 730 mmHg 94%
    05:00 -8°C° 0 mm 2 mps 730 mmHg 94%
    06:00 -8°C° 0 mm 2 mps 731 mmHg 94%
    07:00 -8°C° 0 mm 2 mps 731 mmHg 94%
    08:00 -9°C° 0 mm 2 mps 731 mmHg 94%
    09:00 -8°C° 0 mm 2 mps 732 mmHg 94%
    10:00 -7°C° 0 mm 2 mps 732 mmHg 93%
    11:00 -6°C° 0 mm 2 mps 733 mmHg 92%
    12:00 -5°C° 0 mm 2 mps 732 mmHg 91%
    13:00 -5°C° 0 mm 2 mps 732 mmHg 90%
    14:00 -2°C° 0 mm 1 mps 732 mmHg 89%
    15:00 -3°C° 0 mm 1 mps 732 mmHg 90%
    16:00 -4°C° 0 mm 1 mps 732 mmHg 91%
    17:00 -6°C° 0 mm 1 mps 732 mmHg 92%
    18:00 -6°C° 0 mm 1 mps 732 mmHg 91%
    19:00 -7°C° 0 mm 1 mps 732 mmHg 90%
    20:00 -7°C° 0 mm 1 mps 732 mmHg 90%
    21:00 -8°C° 0 mm 2 mps 732 mmHg 90%
    22:00 -9°C° 0 mm 2 mps 732 mmHg 90%
    23:00 -9°C° 0 mm 2 mps 732 mmHg 90%

    Day after tomorrow, 20 January, Sunday

    Time Temperature Precipitation Wind Pressure Humidity
    00:00 -9°C° 0 mm 2 mps 731 mmHg 90%
    01:00 -10°C° 0 mm 3 mps 731 mmHg 91%
    02:00 -10°C° 0 mm 3 mps 731 mmHg 92%
    03:00 -9°C° 0 mm 3 mps 731 mmHg 93%
    04:00 -9°C° 0 mm 3 mps 730 mmHg 93%
    05:00 -9°C° 0 mm 4 mps 730 mmHg 94%
    06:00 -9°C° 0 mm 4 mps 730 mmHg 94%
    07:00 -9°C° 0 mm 4 mps 729 mmHg 94%
    08:00 -8°C° 0 mm 3 mps 729 mmHg 94%
    09:00 -8°C° 0 mm 3 mps 729 mmHg 94%
    10:00 -8°C° 0 mm 3 mps 729 mmHg 94%
    11:00 -7°C° 0 mm 3 mps 729 mmHg 94%
    12:00 -6°C° 0 mm 2 mps 728 mmHg 94%
    13:00 -5°C° 0 mm 2 mps 728 mmHg 94%
    14:00 -5°C° 0 mm 2 mps 727 mmHg 93%
    15:00 -3°C° 0 mm 1 mps 727 mmHg 94%
    16:00 -3°C° 0 mm 1 mps 727 mmHg 95%
    17:00 -4°C° 0 mm 1 mps 727 mmHg 95%
    18:00 -4°C° 0.2 mm 1 mps 727 mmHg 96%
    19:00 -5°C° 0.2 mm 0 mps 727 mmHg 96%
    20:00 -5°C° 0.2 mm 0 mps 727 mmHg 97%
    21:00 -4°C° 0.4 mm 1 mps 727 mmHg 97%
    22:00 -4°C° 0.4 mm 1 mps 727 mmHg 97%
    23:00 -5°C° 0.4 mm 2 mps 728 mmHg 96%

    21 January, Monday

    Time Temperature Precipitation Wind Pressure Humidity
    00:00 -6°C° 0.1 mm 2 mps 728 mmHg 96%
    01:00 -6°C° 0.1 mm 2 mps 728 mmHg 96%
    02:00 -7°C° 0.1 mm 3 mps 728 mmHg 95%
    03:00 -8°C° 0 mm 3 mps 729 mmHg 95%
    04:00 -9°C° 0 mm 3 mps 729 mmHg 95%
    05:00 -9°C° 0 mm 3 mps 729 mmHg 95%
    06:00 -10°C° 0 mm 3 mps 729 mmHg 94%
    07:00 -10°C° 0 mm 3 mps 730 mmHg 93%
    08:00 -12°C° 0 mm 3 mps 730 mmHg 93%
    09:00 -9°C° 0 mm 3 mps 731 mmHg 93%
    10:00 -8°C° 0 mm 3 mps 731 mmHg 94%
    11:00 -7°C° 0 mm 3 mps 732 mmHg 94%
    12:00 -7°C° 0.1 mm 3 mps 732 mmHg 91%
    13:00 -6°C° 0.1 mm 3 mps 732 mmHg 88%
    14:00 -6°C° 0.1 mm 3 mps 732 mmHg 86%
    15:00 -6°C° 0 mm 2 mps 732 mmHg 86%
    16:00 -7°C° 0 mm 2 mps 733 mmHg 87%
    17:00 -7°C° 0 mm 1 mps 733 mmHg 88%
    18:00 -8°C° 0 mm 1 mps 733 mmHg 88%
    19:00 -9°C° 0 mm 0 mps 733 mmHg 89%
    20:00 -10°C° 0 mm 0 mps 733 mmHg 89%
    21:00 -10°C° 0 mm 0 mps 733 mmHg 88%
    22:00 -10°C° 0 mm 1 mps 733 mmHg 88%
    23:00 -10°C° 0 mm 1 mps 733 mmHg 87%

    22 January, Tuesday

    Time Temperature Precipitation Wind Pressure Humidity
    00:00 -10°C° 0 mm 1 mps 733 mmHg 88%
    01:00 -10°C° 0 mm 1 mps 733 mmHg 89%
    02:00 -10°C° 0 mm 1 mps 733 mmHg 89%
    03:00 -12°C° 0 mm 2 mps 732 mmHg 91%
    04:00 -13°C° 0 mm 2 mps 732 mmHg 92%
    05:00 -13°C° 0 mm 2 mps 731 mmHg 93%
    06:00 -13°C° 0 mm 2 mps 731 mmHg 95%
    07:00 -13°C° 0 mm 2 mps 731 mmHg 96%
    08:00 -13°C° 0 mm 2 mps 731 mmHg 97%
    09:00 -12°C° 0 mm 2 mps 731 mmHg 97%
    10:00 -10°C° 0 mm 2 mps 730 mmHg 96%
    11:00 -10°C° 0 mm 3 mps 730 mmHg 95%
    12:00 -9°C° 0 mm 3 mps 730 mmHg 94%
    13:00 -8°C° 0 mm 2 mps 729 mmHg 93%
    14:00 -7°C° 0 mm 2 mps 728 mmHg 92%
    15:00 -8°C° 0 mm 2 mps 728 mmHg 92%
    16:00 -9°C° 0 mm 2 mps 727 mmHg 93%
    17:00 -12°C° 0 mm 3 mps 727 mmHg 93%
    18:00 -12°C° 0 mm 3 mps 726 mmHg 94%
    19:00 -13°C° 0 mm 3 mps 726 mmHg 94%
    20:00 -13°C° 0 mm 3 mps 726 mmHg 95%
    21:00 -13°C° 0 mm 3 mps 725 mmHg 95%
    22:00 -12°C° 0 mm 4 mps 725 mmHg 96%
    23:00 -12°C° 0 mm 4 mps 724 mmHg 96%

    23 January, Wednesday

    Time Temperature Precipitation Wind Pressure Humidity
    00:00 -12°C° 0 mm 4 mps 724 mmHg 97%
    01:00 -12°C° 0 mm 5 mps 723 mmHg 97%
    02:00 -12°C° 0 mm 5 mps 722 mmHg 98%
    03:00 -12°C° 0 mm 5 mps 722 mmHg 97%
    04:00 -12°C° 0 mm 6 mps 721 mmHg 96%
    05:00 -11°C° 0 mm 6 mps 720 mmHg 95%
    06:00 -11°C° 0 mm 6 mps 720 mmHg 95%
    07:00 -10°C° 0 mm 6 mps 720 mmHg 94%
    08:00 -9°C° 0 mm 7 mps 719 mmHg 93%
    09:00 -8°C° 0 mm 7 mps 719 mmHg 92%
    10:00 -7°C° 0 mm 8 mps 718 mmHg 91%
    11:00 -5°C° 0 mm 8 mps 718 mmHg 90%
    12:00 -5°C° 0 mm 8 mps 717 mmHg 90%
    13:00 -4°C° 0 mm 9 mps 717 mmHg 89%
    14:00 -4°C° 0 mm 9 mps 716 mmHg 89%
    15:00 -4°C° 0 mm 9 mps 715 mmHg 89%
    16:00 -4°C° 0 mm 9 mps 715 mmHg 89%
    17:00 -3°C° 0 mm 10 mps 715 mmHg 90%
    18:00 -3°C° 0 mm 10 mps 715 mmHg 89%
    19:00 -3°C° 0 mm 10 mps 714 mmHg 89%
    20:00 -3°C° 0 mm 11 mps 714 mmHg 88%
    21:00 -3°C° 0 mm 11 mps 714 mmHg 88%
    22:00 -4°C° 0 mm 10 mps 714 mmHg 88%
    23:00 -4°C° 0 mm 10 mps 714 mmHg 87%
    Show more